sat.trackr.live / text

‹ back to catalog

STARLINK-11127 [DTC]

NORAD 60119 · 2024-118G

PAYLOAD ACTIVE UNKNOWN

§ Identity

Operator
Country
US
Launch date
2024-06-24
Launch site
AFWTR
Launch vehicle
Mass (kg)
RCS (m²)

Purposes: comms

External: N2YO · Heavens-Above · Gunter

§ Orbital elements

Epoch: 2026-05-24T21:38:37.533984Z

Period
91.74 min
Inclination
53.1598°
Eccentricity
0.0001210
Mean motion
15.69703627 rev/d
Perigee alt
358.9 km
Apogee alt
360.6 km
Semi-major
6,737.9 km
B*
2.5996e-5
RAAN
205.5362°
Arg perigee
76.7535°
Mean anomaly
283.3618°
Rev number
10,996

§ Raw data

STARLINK-11127 [DTC]1 60119U 24118G   26144.90182331  .00002561  00000+0  25996-4 0  99952 60119  53.1598 205.5362 0001210  76.7535 283.3618 15.69703627109962

JSON: /api/v1/satellites/60119 · /tle

For live sub-satellite position, see the globe view (requires WebGL).

§ Visibility from observer

Set your observer location to see the next 7 days of passes ≥ 10°. The values pass through the URL so the page stays shareable.

No JS? Fill the form by hand. The geolocation button needs JavaScript.